星链-31210 (STARLINK-31210 )

导读 | 星芒AI

STARLINK-31210 是 SpaceX Starlink 卫星互联网项目中的一颗低轨卫星,属于第 11 批部署的星链卫星之一。该卫星于 2023 年发射,运行在约 550 公里的轨道高度,旨在为全球用户提供高速、低延迟的宽带互联网服务。作为 Starlink 项目的重要组成部分,它支持偏远地区的网络接入,提升全球通信能力。该卫星采用可再生太阳能供电,并具备自主避障功能,以确保运行安全和轨道可持续性。

基本信息
目录编号:
59033
目录名称:
STARLINK-31210
国际标识:
2024-038L
轨道中心:
EARTH
卫星名称:
星链-31210
卫星全名:
星链-31210 (STARLINK-31210 )
卫星状态:
在轨 (已飞行663 天)
发射日期:
2024-02-25 UTC
国别 :
美国 (US)
星等 :
--
轨道信息
数据来源 国际轨道数据
星历时间: 2025-12-18T17:22:05+0800
1天前
查看轨道信息
半长轴: 6861.179km
偏心率: 0.0001302
轨道倾角: 43.003°
近地点辐角 274.197°
升交点赤经 122.781°
平近点角 85.874°
近地点: 482.15km
远地点: 483.938km
周期: 94.267分钟
每日圈数: 15.275824
详细信息
固有亮度:
5
最大亮度:
0.3
卫星平台:
Starlink v2.0 mini
覆盖范围:
全球
运营商:
太空探索技术公司
运营商所在国:
美国
制造商(研发单位):
太空探索技术公司
制造商所在国:
美国
使用方式:
暂无
卫星简介
星链(Starlink)计划是由太空探索技术公司(SpaceX)提出的一个巨型低轨卫星互联网星座项目,计划在2019年至2024年间在太空搭建由约1.2万颗卫星组成的“星链”网络,其中1584颗将部署在地球上空550千米处的近地轨道,并从2020年开始工作。该卫星仍在工作。
2D轨道图
3D轨道图
轨道高度分析图
轨道倾角分析图
轨道综合分析图
查看轨道综合分析图